OBJECT F, 66671

Orbit data source: Space-Track

You're viewing an Uncataloged Satellite

Recently launched and/or uncataloged satellites may have evolving metadata. Metadata may include but not limited to: Owner, Maufacturer, Bus, Motor, and Mission.

OBJECT F, 66671 is a satellite in SSO that was launched on Fri, 28 Nov 2025 UTC via an FALCON 9 launch vehicle from the Air Force Western Test Range (AFWTR). Unknown objects in Earth's orbit typically refer to objects detected orbiting the Earth but have not yet been identified or cataloged. These objects could be anything from previously untracked satellites, spent rocket stages, debris from satellite collisions, or even natural meteoroids temporarily captured by Earth's gravity.

Loading next visibility...
Identifier
66671, 2025-276F
Orbit
SSO
Country
Flag of TBDTBD
Related business
None
Manufacturer
Unknown
Mission
Operational Commercial Communications
Bus & Motor
Unknown
Mass
Unknown
Launch date (UTC)
2025-11-28 (2 months ago)
Launch vehicle
FALCON 9
Launch site
Air Force Western Test Range (AFWTR)
Object type
Unknown
Shape & HBR
Box, 0.2 m
Radar Cross Section
0.100 m²

Expand to show TLE details & history
Last TLE update: 17 hours ago

TLE from 17 hours ago
0 OBJECT F
1 66671U 25276F   26034.42536054  .00014157  00000-0  68970-3 0  9993
2 66671  97.4352 110.2618 0007237 106.5082 253.6947 15.18433608 10116
Epoch: 2026-02-03T10:12Z
TLE epoch observation values (Epoch: 2026-02-03T10:12:31.150Z)
Latitude
-0.00011°
Longitude
-176.47445°
Altitude
515.065 km
Speed
7.605 km/s
True Right ascension
07h 21m 02s
True Declination
0° 00' 00"
Sunlit
Object was in full shadow at epoch
Visualization orbit readout
Latitude
Unknown
Longitude
Unknown
Altitude
Unknown
Speed
Unknown
Apparent Right ascension
Unknown
Apparent Declination
Unknown
Sunlit
N/A
Visualization observer readout
Local Sidereal Time
05:36:07
Azimuth
Unknown
Elevation
Unknown
Doppler factor
Unknown
Orbital elements
Apogee altitude
512.526 km
Perigee altitude
502.56 km
Semi-major axis
6,885.68 km
Eccentricity
0.00072
Inclination
97.4352°
RAAN
110.2618°
Arg. of periapsis
106.5082°
True anomaly
253.61513°
Mean anomaly
253.6947°
Eccentric anomaly
253.65491°
Mean motion
3.79859 °/min
Orbital period
94.77 mins
BSTAR
0.0006897
Loading maneuver chart data...
Computing Atmospheric mass density...
Loading historical data...
Loading historical data...
Loading historical data...
Loading historical data...
Loading historical data...
Loading historical data...
Loading historical data...

Documentation

Showing up to 5 results
|